Location: Aufkirchen
(47.9603°N, 11.3653°E)
Time: 07:45:43
(UTC+01:00)

Transit 2A - Visible Passes

Search period start: 27 November 2020 00:00
Search period end: 07 December 2020 00:00
Orbit: 595 x 964 km, 66.7° (Epoch: 26 November)

Date Brightness Start Highest point End Pass type
(mag) Time Alt. Az. Time Alt. Az. Time Alt. Az.
27 Nov 6.7 17:34:20 10° S 17:40:24 50° ESE 17:45:25 14° NE visible
27 Nov 7.4 19:17:56 10° WSW 19:23:49 41° NW 19:25:55 31° N visible
27 Nov 9.0 21:05:08 10° WNW 21:06:25 13° NW 21:06:25 13° NW visible
28 Nov 7.1 17:00:39 10° S 17:06:21 37° ESE 17:11:50 10° NE visible
28 Nov 7.0 18:43:22 10° SW 18:49:31 52° NW 18:52:56 24° NNE visible
28 Nov 8.5 20:30:01 10° WNW 20:33:27 18° NW 20:33:27 18° NW visible
29 Nov 6.6 18:08:58 10° SW 18:15:15 68° NW 18:19:54 17° NNE visible
29 Nov 8.2 19:54:56 10° W 19:59:31 21° NNW 20:00:24 20° NNW visible
30 Nov 6.4 17:34:42 10° SSW 17:41:02 88° WNW 17:46:49 11° NE visible
30 Nov 8.0 19:20:00 10° W 19:25:01 25° NW 19:27:19 20° N visible
01 Dec 6.5 17:00:36 10° SSW 17:06:52 71° ESE 17:12:48 10° NE visible
01 Dec 7.8 18:45:09 10° W 18:50:36 31° NW 18:54:11 17° NNE visible
01 Dec 8.8 20:33:00 10° NW 20:34:41 13° NNW 20:34:41 13° NNW visible
02 Dec 7.5 18:10:25 10° WSW 18:16:14 39° NW 18:21:02 13° NNE visible
02 Dec 8.5 19:57:47 10° NW 20:01:03 15° NNW 20:01:31 15° NNW visible
03 Dec 7.1 17:35:51 10° WSW 17:41:54 49° NW 17:47:35 10° NNE visible
03 Dec 8.3 19:22:37 10° WNW 19:26:29 17° NNW 19:28:20 15° N visible
04 Dec 6.8 17:01:24 10° SW 17:07:37 64° NW 17:13:28 10° NNE visible
04 Dec 8.2 18:47:32 10° WNW 18:51:56 20° NNW 18:55:07 13° N visible
05 Dec 8.0 18:12:33 10° W 18:17:26 24° NW 18:21:52 11° NNE visible
05 Dec 8.7 20:00:53 10° NNW 20:02:21 11° NNW 20:02:21 11° NNW visible
06 Dec 7.8 17:37:41 10° W 17:43:00 30° NW 17:48:00 10° NNE visible
06 Dec 8.5 19:25:40 10° NW 19:28:07 13° NNW 19:29:06 12° N visible
